This is the latest recevied weather packets stored in our database for station/object DP0GVN-13. If no packets are shown the sender has not sent any weather packets the latest 10 day(s).
| Time | Temp. | Humidity | Pressure | Rain* | Wind** | Luminosity | Snow |
|---|---|---|---|---|---|---|---|
| 1777780812 | -21.67° C | 77% | 990.3 hPa | - | - | 0 W/m² | - |
| 1777779012 | -21.67° C | 78% | 989.8 hPa | - | - | 0 W/m² | - |
| 1777777212 | -21.67° C | 77% | 989.8 hPa | - | - | 0 W/m² | - |
| 1777775412 | -22.78° C | 76% | 989.8 hPa | - | - | 0 W/m² | - |
| 1777773612 | -22.78° C | 78% | 989.7 hPa | - | - | 0 W/m² | - |
| 1777771812 | -23.89° C | 77% | 989.9 hPa | - | - | 0 W/m² | - |
| 1777770012 | -23.89° C | 77% | 989.7 hPa | - | - | 0 W/m² | - |
| 1777768212 | -23.89° C | 76% | 989.6 hPa | - | - | 0 W/m² | - |
| 1777766412 | -23.89° C | 76% | 989.4 hPa | - | - | 0 W/m² | - |
| 1777764619 | -25° C | 78% | 989.1 hPa | - | - | 0 W/m² | - |
| 1777762812 | -23.89° C | 77% | 989 hPa | - | - | 0 W/m² | - |
| 1777761012 | -23.89° C | 79% | 988.5 hPa | - | - | 0 W/m² | - |
| 1777759212 | -22.78° C | 80% | 988.1 hPa | - | - | 0 W/m² | - |
| 1777757427 | -22.78° C | 80% | 988 hPa | - | - | 0 W/m² | - |
| 1777755612 | -23.89° C | 79% | 988 hPa | - | - | 0 W/m² | - |
| 1777753812 | -23.89° C | 79% | 988.1 hPa | - | - | 0 W/m² | - |
| 1777752012 | -25° C | 78% | 987.9 hPa | - | - | 0 W/m² | - |
| 1777750212 | -25.56° C | 78% | 988.1 hPa | - | - | 0 W/m² | - |
| 1777748412 | -25.56° C | 77% | 988.4 hPa | - | - | 0 W/m² | - |
| 1777746612 | -26.67° C | 78% | 988.4 hPa | - | - | 0 W/m² | - |
| 1777744813 | -25.56° C | 78% | 988.4 hPa | - | - | 0 W/m² | - |
| 1777743012 | -25° C | 76% | 988.2 hPa | - | - | 0 W/m² | - |
| 1777741212 | -25.56° C | 78% | 988.3 hPa | - | - | 0 W/m² | - |
| 1777739412 | -25.56° C | 78% | 989 hPa | - | - | 0 W/m² | - |
| 1777735812 | -25.56° C | 74% | 989.5 hPa | - | - | 0 W/m² | - |
* Rain since midnight (hover to see other rain measurements)
** Current wind speed in m/s (hover to see current wind gust speed)